Meteo pe oră la Allariz

Astăzi, 19 Ianuarie, Marţi

Timp Temperatura Precipitaţii Vânt Presiune Umiditate
00:00 +4°C° 0 mm 1 m/s 716 mmHg 85%
01:00 +4°C° 0 mm 1 m/s 716 mmHg 86%
02:00 +3°C° 0 mm 1 m/s 715 mmHg 86%
03:00 +2°C° 0 mm 2 m/s 715 mmHg 86%
04:00 +2°C° 0 mm 2 m/s 715 mmHg 87%
05:00 +2°C° 0 mm 2 m/s 714 mmHg 87%
06:00 +2°C° 0 mm 2 m/s 714 mmHg 85%
07:00 +3°C° 0 mm 2 m/s 714 mmHg 83%
08:00 +3°C° 0 mm 2 m/s 714 mmHg 81%
09:00 +5°C° 0 mm 2 m/s 714 mmHg 75%
10:00 +7°C° 0 mm 3 m/s 714 mmHg 69%
11:00 +8°C° 0 mm 3 m/s 714 mmHg 63%
12:00 +8°C° 0 mm 3 m/s 713 mmHg 62%
13:00 +8°C° 0 mm 3 m/s 712 mmHg 62%
14:00 +9°C° 0 mm 3 m/s 711 mmHg 61%
15:00 +7°C° 0 mm 3 m/s 710 mmHg 66%
16:00 +5°C° 0 mm 3 m/s 710 mmHg 71%
17:00 +4°C° 0 mm 3 m/s 709 mmHg 76%
18:00 +4°C° 0 mm 3 m/s 709 mmHg 78%
19:00 +4°C° 0 mm 4 m/s 708 mmHg 79%
20:00 +4°C° 0 mm 4 m/s 707 mmHg 80%
21:00 +4°C° 0 mm 4 m/s 707 mmHg 82%
22:00 +4°C° 0 mm 4 m/s 706 mmHg 84%
23:00 +4°C° 0 mm 4 m/s 705 mmHg 86%

Mâine, 20 Ianuarie, Miercuri

Timp Temperatura Precipitaţii Vânt Presiune Umiditate
00:00 +3°C° 1.7 mm 5 m/s 704 mmHg 88%
01:00 +5°C° 1.7 mm 5 m/s 704 mmHg 91%
02:00 +5°C° 1.7 mm 5 m/s 703 mmHg 94%
03:00 +5°C° 0.4 mm 4 m/s 702 mmHg 94%
04:00 +5°C° 0.4 mm 4 m/s 702 mmHg 94%
05:00 +6°C° 0.4 mm 4 m/s 701 mmHg 94%
06:00 +6°C° 1 mm 4 m/s 701 mmHg 94%
07:00 +6°C° 1 mm 4 m/s 701 mmHg 95%
08:00 +6°C° 1 mm 4 m/s 701 mmHg 95%
09:00 +7°C° 2.2 mm 4 m/s 701 mmHg 95%
10:00 +7°C° 2.2 mm 4 m/s 701 mmHg 96%
11:00 +7°C° 2.2 mm 4 m/s 701 mmHg 96%
12:00 +7°C° 0.9 mm 4 m/s 700 mmHg 96%
13:00 +7°C° 0.9 mm 4 m/s 700 mmHg 95%
14:00 +8°C° 0.9 mm 4 m/s 700 mmHg 95%
15:00 +7°C° 1.8 mm 4 m/s 700 mmHg 95%
16:00 +8°C° 1.8 mm 3 m/s 701 mmHg 96%
17:00 +8°C° 1.8 mm 3 m/s 701 mmHg 97%
18:00 +8°C° 0.3 mm 3 m/s 702 mmHg 97%
19:00 +8°C° 0.3 mm 3 m/s 702 mmHg 96%
20:00 +8°C° 0.3 mm 3 m/s 702 mmHg 96%
21:00 +8°C° 0.2 mm 3 m/s 703 mmHg 96%
22:00 +8°C° 0.2 mm 3 m/s 704 mmHg 96%
23:00 +8°C° 0.2 mm 3 m/s 704 mmHg 96%

Poimâine, 21 Ianuarie, Joi

Timp Temperatura Precipitaţii Vânt Presiune Umiditate
00:00 +8°C° 0.2 mm 3 m/s 704 mmHg 96%
01:00 +8°C° 0.2 mm 3 m/s 704 mmHg 96%
02:00 +7°C° 0.2 mm 2 m/s 705 mmHg 96%
03:00 +8°C° 0.1 mm 3 m/s 704 mmHg 96%
04:00 +8°C° 0.1 mm 3 m/s 704 mmHg 96%
05:00 +8°C° 0.1 mm 3 m/s 703 mmHg 96%
06:00 +7°C° 4 mm 4 m/s 703 mmHg 96%
07:00 +7°C° 4 mm 4 m/s 702 mmHg 97%
08:00 +8°C° 4 mm 5 m/s 702 mmHg 97%
09:00 +8°C° 2.4 mm 6 m/s 702 mmHg 94%
10:00 +8°C° 2.4 mm 7 m/s 703 mmHg 92%
11:00 +9°C° 2.4 mm 8 m/s 703 mmHg 90%
12:00 +7°C° 0.2 mm 8 m/s 703 mmHg 89%
13:00 +6°C° 0.2 mm 8 m/s 703 mmHg 89%
14:00 +5°C° 0.2 mm 8 m/s 703 mmHg 89%
15:00 +5°C° 0.4 mm 7 m/s 704 mmHg 90%
16:00 +5°C° 0.4 mm 6 m/s 705 mmHg 91%
17:00 +5°C° 0.4 mm 6 m/s 706 mmHg 92%
18:00 +6°C° 0.4 mm 5 m/s 706 mmHg 92%
19:00 +6°C° 0.4 mm 5 m/s 707 mmHg 92%
20:00 +5°C° 0.4 mm 5 m/s 707 mmHg 92%
21:00 +5°C° 0.4 mm 5 m/s 707 mmHg 93%
22:00 +5°C° 0.4 mm 4 m/s 707 mmHg 94%
23:00 +5°C° 0.4 mm 3 m/s 706 mmHg 96%

22 Ianuarie, Vineri

Timp Temperatura Precipitaţii Vânt Presiune Umiditate
00:00 +5°C° 0.6 mm 3 m/s 706 mmHg 96%
01:00 +5°C° 0.6 mm 4 m/s 706 mmHg 96%
02:00 +6°C° 0.6 mm 4 m/s 706 mmHg 96%
03:00 +6°C° 1.6 mm 4 m/s 705 mmHg 95%
04:00 +6°C° 1.6 mm 4 m/s 705 mmHg 95%
05:00 +6°C° 1.6 mm 4 m/s 705 mmHg 94%
06:00 +5°C° 0.8 mm 5 m/s 705 mmHg 94%
07:00 +5°C° 0.8 mm 5 m/s 706 mmHg 94%
08:00 +3°C° 0.8 mm 5 m/s 706 mmHg 94%
09:00 +5°C° 0.4 mm 5 m/s 707 mmHg 92%
10:00 +5°C° 0.4 mm 5 m/s 708 mmHg 91%
11:00 +6°C° 0.4 mm 5 m/s 708 mmHg 89%
12:00 +6°C° 0.3 mm 5 m/s 709 mmHg 89%
13:00 +6°C° 0.3 mm 5 m/s 709 mmHg 88%
14:00 +6°C° 0.3 mm 5 m/s 710 mmHg 88%
15:00 +5°C° 0.2 mm 4 m/s 710 mmHg 90%
16:00 +5°C° 0.2 mm 4 m/s 711 mmHg 92%
17:00 +4°C° 0.2 mm 4 m/s 711 mmHg 93%
18:00 +4°C° 0.1 mm 3 m/s 711 mmHg 94%
19:00 +4°C° 0.1 mm 3 m/s 712 mmHg 95%
20:00 +3°C° 0.1 mm 3 m/s 712 mmHg 95%
21:00 +3°C° 0.1 mm 3 m/s 712 mmHg 95%
22:00 +4°C° 0.1 mm 3 m/s 712 mmHg 94%
23:00 +4°C° 0.1 mm 3 m/s 712 mmHg 94%

23 Ianuarie, Sâmbătă

Timp Temperatura Precipitaţii Vânt Presiune Umiditate
00:00 +4°C° 0.1 mm 3 m/s 711 mmHg 94%
01:00 +4°C° 0.1 mm 3 m/s 711 mmHg 94%
02:00 +4°C° 0.1 mm 3 m/s 711 mmHg 94%
03:00 +4°C° 0.2 mm 3 m/s 711 mmHg 95%
04:00 +5°C° 0.2 mm 3 m/s 710 mmHg 95%
05:00 +5°C° 0.2 mm 3 m/s 709 mmHg 95%
06:00 +5°C° 0.6 mm 3 m/s 709 mmHg 95%
07:00 +7°C° 0.6 mm 3 m/s 709 mmHg 95%
08:00 +7°C° 0.6 mm 3 m/s 709 mmHg 96%
09:00 +7°C° 2.2 mm 4 m/s 708 mmHg 96%
10:00 +7°C° 2.2 mm 4 m/s 708 mmHg 96%
11:00 +8°C° 2.2 mm 4 m/s 708 mmHg 96%
12:00 +9°C° 2.4 mm 5 m/s 708 mmHg 96%
13:00 +9°C° 2.4 mm 5 m/s 708 mmHg 96%
14:00 +10°C° 2.4 mm 6 m/s 707 mmHg 96%
15:00 +10°C° 5.5 mm 5 m/s 707 mmHg 97%
16:00 +11°C° 5.5 mm 4 m/s 707 mmHg 97%
17:00 +11°C° 5.5 mm 4 m/s 707 mmHg 98%
18:00 +10°C° 2.6 mm 3 m/s 708 mmHg 97%
19:00 +10°C° 2.6 mm 3 m/s 708 mmHg 97%
20:00 +10°C° 2.6 mm 3 m/s 708 mmHg 97%
21:00 +10°C° 1.2 mm 3 m/s 709 mmHg 97%
22:00 +9°C° 1.2 mm 3 m/s 709 mmHg 97%
23:00 +9°C° 1.2 mm 2 m/s 709 mmHg 97%

24 Ianuarie, Duminică

Timp Temperatura Precipitaţii Vânt Presiune Umiditate
00:00 +8°C° 0.1 mm 2 m/s 709 mmHg 97%
01:00 +7°C° 0.1 mm 2 m/s 709 mmHg 97%
02:00 +8°C° 0.1 mm 1 m/s 710 mmHg 97%
03:00 +8°C° 0 mm 1 m/s 710 mmHg 97%
04:00 +8°C° 0 mm 1 m/s 710 mmHg 97%
05:00 +7°C° 0 mm 1 m/s 710 mmHg 97%
06:00 +8°C° 0 mm 1 m/s 711 mmHg 97%
07:00 +8°C° 0 mm 1 m/s 711 mmHg 96%
08:00 +8°C° 0 mm 1 m/s 712 mmHg 96%
09:00 +9°C° 0 mm 1 m/s 712 mmHg 92%
10:00 +10°C° 0 mm 1 m/s 712 mmHg 89%
11:00 +11°C° 0 mm 1 m/s 713 mmHg 86%
12:00 +11°C° 0.1 mm 1 m/s 712 mmHg 87%
13:00 +10°C° 0.1 mm 1 m/s 712 mmHg 89%
14:00 +10°C° 0.1 mm 1 m/s 712 mmHg 90%
15:00 +10°C° 0.3 mm 1 m/s 712 mmHg 93%
16:00 +10°C° 0.3 mm 1 m/s 712 mmHg 95%
17:00 +9°C° 0.3 mm 1 m/s 712 mmHg 97%
18:00 +9°C° 0.1 mm 1 m/s 712 mmHg 97%
19:00 +10°C° 0.1 mm 1 m/s 712 mmHg 97%
20:00 +10°C° 0.1 mm 1 m/s 712 mmHg 97%
21:00 +10°C° 0.4 mm 1 m/s 711 mmHg 97%
22:00 +10°C° 0.4 mm 1 m/s 711 mmHg 97%
23:00 +10°C° 0.4 mm 1 m/s 711 mmHg 97%
Arată mai mult

Formular de consimțământ

Meteoprog și furnizorii noștri de servicii pot stoca și accesa date personale, precum cookies, identificatori de dispozitiv sau alte tehnologii similare pe dispozitivul dumneavoastră și procesa astfel de date pentru a personaliza conținutul și reclamele, dar și pentru a oferi caracteristici de social media și pentru a analiza traficul.

  • Stocarea și/sau accesarea informațiilor pe dispozitivul dumneavoastră

    Cookies, identificatori de dispozitiv sau alte informații pot fi stocate sau accesate pe dispozitiv în scopurile indicate mai sus.

  • Reclame și conținut personalizat, evaluarea reclamelor și a conținutului, informații despre audiențe și dezvoltarea produselor

    Reclamele și conținutul pot fi personalizate pe baza unui profil. Pot fi adăugate date suplimentare pentru a personaliza mai bine reclamele și conținutul. Performanța reclamelor și conținutului poate fi măsurată. Pot fi obținute informații despre utilizatorii care au văzut reclamele și conținutul. Aceste date pot fi utilizate pentru a dezvolta sau îmbunătăți experiența utilizatorilor, sistemele și software-ul.

Dând clic pe ‘Sunt de acord’, permiteți utilizarea cookie-urilor menționate, a identificatorilor de dispozitiv, balizelor web sau altor tehnologii similare. Setările pot fi modificate din browser-ul dispozitivului dumneavoastră.

În anumite scopuri, interesele legitime pot prima asupra consimțământului. Puteți citi mai multe informații în acest sens în Politica privind Confidențialitatea Datelor și Cookie.